QAEM 100 R/B

Last updated on Fri Oct 04 2024 00:02:04 GMT+0000 (Coordinated Universal Time)

1 61071U 24165A 24277.56196866 .00010243 00000+0 72705-3 0 9995 2 61071 64.0945 276.9964 0006398 254.2916 105.7491 15.05151665 2906
UTC large
Height (km)
Speed (km/s)
/
Latitude / Longitude
Inclination (degrees)
Orbital Period (minutes)
Azimuth
Elevation
Range (km)
Doppler Factor

Next 0 passes for location: London (51.5072 / 0.1276)

Sorry there are no passes over London.